Wind_Speed
21 18 17 16 13 10 9 10 10 7 5 4 3 4 5 6 6 6 6 7 7 7 6 5 5 4 4 4 4 3 3 2 2 2 3 3 4 4 4 4 4 4
23 20 19 20 18 15 12 11 11 7 4 2 1 2 4 6 7 7 8 10 11 11 10 10 9 9 8 8 8 7 6 5 5 4 3 3 2 3 3 3 3 4
25 21 22 22 21 20 17 14 14 9 4 3 2 1 3 5 7 8 9 10 12 12 12 11 12 12 12 12 12 11 11 10 9 9 8 7 6 5 5 5 4 4
26 23 24 26 26 26 21 19 18 12 7 6 3 2 2 4 5 7 8 9 10 10 10 10 10 10 10 11 11 11 12 11 11 11 11 10 9 8 8 7 7 6
26 26 27 29 31 30 26 23 20 13 10 9 5 4 3 2 3 3 5 5 6 6 7 7 6 6 7 7 7 7 8 8 9 10 10 10 10 9 9 9 8 8
22 26 29 31 33 33 28 24 19 14 14 13 9 8 6 5 5 3 3 3 3 3 3 2 2 2 2 2 3 3 3 4 5 6 6 7 8 8 7 7 7 7
17 22 28 32 35 33 28 23 18 15 18 17 14 13 10 10 10 8 8 6 5 5 4 3 2 2 3 3 3 3 3 3 3 4 5 5 6 6 6 6 6 6
15 19 23 29 33 33 29 25 19 18 22 22 18 16 15 14 14 12 11 10 9 9 8 7 6 5 6 6 6 7 7 6 5 5 5 5 6 6 7 7 7 7
15 17 19 23 29 31 30 28 23 22 25 25 20 19 18 18 16 15 13 12 11 11 11 10 9 8 8 8 9 9 10 10 9 8 7 7 7 7 8 9 9 10
14 15 16 18 23 27 29 29 27 24 25 26 24 23 22 20 18 17 15 15 14 13 13 14 14 12 11 11 12 12 13 13 12 11 10 10 10 10 10 11 11 12
13 14 14 15 19 24 27 28 27 25 26 28 28 27 25 23 21 20 19 19 18 17 16 17 17 16 15 15 15 14 15 16 16 15 14 13 13 13 14 14 13 13
13 14 14 14 16 20 23 26 27 26 26 28 30 30 26 24 24 23 23 23 22 19 17 17 19 19 19 18 16 16 18 18 16 17 17 16 15 16 16 17 17 16
15 14 14 15 17 19 21 25 27 27 27 28 31 31 28 27 26 26 27 26 23 19 17 17 18 19 19 19 17 16 17 16 15 17 18 18 18 18 17 17 18 18
16 16 15 16 18 20 20 22 25 27 28 29 30 30 31 29 27 29 31 28 22 18 17 16 17 16 16 16 16 15 16 16 17 20 21 22 22 21 20 19 19 19
18 17 17 17 19 20 20 19 21 25 28 29 29 29 29 27 25 27 27 24 20 18 16 16 16 16 15 14 13 13 14 16 18 19 20 21 22 23 23 22 21 21
18 18 18 18 18 19 19 18 20 23 25 27 26 25 23 21 22 21 19 18 18 17 16 16 15 15 15 14 13 14 15 16 17 17 17 17 19 20 21 22 21 22
17 17 18 18 17 18 19 19 20 22 24 24 24 23 20 18 18 17 15 15 15 15 15 16 16 15 15 15 15 15 16 17 18 18 18 18 19 19 19 20 21 22
18 18 18 18 18 18 19 20 21 22 23 23 23 21 19 17 16 15 15 15 15 16 17 18 18 17 17 17 18 19 20 20 20 21 21 21 22 21 21 22 22 23
19 20 20 20 20 20 20 20 21 22 22 22 22 21 19 18 17 16 17 17 18 18 19 19 18 19 19 21 22 23 23 23 23 24 24 24 24 24 24 24 25 25
20 21 21 21 22 21 21 22 22 22 23 23 22 22 21 20 19 18 19 19 19 19 20 20 20 21 22 24 24 25 25 25 25 25 25 25 26 26 26 26 26 26
21 21 22 22 23 22 22 23 24 24 25 24 24 23 22 22 22 21 21 21 22 22 22 22 22 23 24 24 25 25 26 26 26 26 26 26 27 27 28 28 28 28
23 23 23 24 24 23 23 24 25 26 26 26 25 24 24 23 23 23 23 23 23 22 22 22 23 23 23 24 24 25 26 26 26 27 27 27 27 27 28 28 28 28
25 24 24 25 25 24 25 25 26 26 26 26 26 25 25 24 24 23 23 23 23 22 22 23 23 23 24 24 25 25 26 26 27 27 27 27 27 27 27 27 28 28
26 25 25 26 25 25 26 25 25 25 25 25 25 25 25 25 24 24 24 24 24 23 23 23 23 23 23 23 24 25 25 26 26 27 27 27 27 27 27 27 27 27
25 24 24 25 26 27 27 27 26 26 26 26 26 26 26 26 26 26 26 26 26 25 25 25 24 24 24 24 24 25 26 26 27 28 28 28 29 29 28 28 28 28
25 24 24 24 26 27 27 27 27 27 28 28 28 27 27 27 27 28 28 28 28 28 28 27 27 27 27 27 27 28 28 29 29 29 30 30 31 31 31 31 32 32
Wind_Direction
255 257 261 261 259 254 256 274 281 281 295 317 356 32 53 56 55 61 63 65 62 55 49 40 26 16 9 7 7 8 6 356 338 324 317 313 317 319 320 316 306 296
254 252 253 255 254 248 248 262 266 254 257 281 346 50 70 76 74 74 74 73 71 68 65 62 57 53 49 46 44 44 45 46 49 47 39 26 6 357 349 344 337 324
252 247 247 250 248 245 249 256 251 238 224 225 206 109 86 87 83 82 82 81 81 80 76 72 68 64 60 55 51 49 49 50 51 53 54 53 51 49 46 42 39 30
248 241 241 247 245 246 253 256 256 251 224 209 207 183 124 100 91 88 86 86 89 90 84 78 73 68 63 57 52 48 45 43 43 43 42 41 41 41 41 40 42 40
245 237 237 243 246 253 261 261 268 265 225 210 211 210 196 161 138 112 102 97 95 94 88 82 76 70 63 57 52 45 39 35 30 28 27 26 26 27 27 26 27 28
250 243 240 242 246 255 261 261 270 265 230 217 210 215 221 210 202 190 173 151 127 126 112 97 84 70 53 39 35 29 27 19 10 7 5 6 6 5 8 8 7 7
261 252 247 244 246 253 256 254 260 255 237 227 214 212 220 218 214 212 207 202 196 199 202 217 243 269 281 293 300 296 296 302 315 326 327 330 332 331 332 332 332 333
262 257 250 245 246 251 250 246 248 246 240 235 222 214 219 223 224 222 218 216 215 215 215 219 231 247 261 274 281 280 278 277 277 281 288 298 303 304 302 299 299 300
258 256 251 243 239 241 242 240 243 242 239 238 234 226 224 226 230 232 230 230 232 231 229 228 229 233 245 258 265 267 268 268 267 268 271 280 286 288 286 285 286 285
261 255 251 241 232 233 236 238 242 242 239 239 241 239 233 231 233 237 237 238 241 240 241 242 239 235 240 250 255 258 262 266 269 270 271 274 279 283 282 279 279 279
267 257 252 243 234 233 237 240 243 244 241 241 242 240 234 230 233 236 240 243 241 237 241 249 251 249 250 251 252 255 258 262 268 272 274 276 277 279 279 277 275 274
263 257 253 249 244 242 243 244 245 245 244 245 246 246 242 238 237 237 240 243 243 244 251 258 260 262 262 258 256 255 254 256 261 266 270 273 276 277 275 275 274 272
256 252 249 247 249 250 249 248 247 246 246 249 253 257 262 261 253 245 241 242 247 257 266 268 266 269 271 270 268 265 262 262 264 266 266 268 271 273 271 270 270 270
248 248 245 243 246 247 247 248 247 246 246 248 252 259 267 269 262 251 245 245 252 261 266 269 269 270 272 272 271 270 271 269 267 267 268 267 267 269 269 268 266 266
243 244 244 245 245 242 241 244 246 246 247 248 252 258 264 265 260 255 253 251 252 256 258 262 264 263 264 265 265 266 269 270 269 270 271 269 268 269 271 271 269 268
245 244 245 245 243 238 235 237 241 245 248 249 252 255 257 256 255 257 257 248 242 243 248 254 256 254 256 258 258 258 261 264 267 269 271 272 273 273 273 273 271 270
248 247 246 245 241 235 234 235 238 242 245 247 249 251 249 246 245 249 248 238 233 236 244 251 253 253 254 259 262 263 264 264 265 267 270 272 273 273 273 273 271 271
247 246 244 243 240 236 235 235 236 240 243 245 247 245 242 238 236 238 240 237 235 238 244 248 251 254 260 267 270 271 271 270 271 273 274 275 275 274 274 274 275 275
248 248 244 241 240 237 233 232 234 238 241 242 241 239 237 237 237 236 237 239 240 241 245 249 253 258 263 267 270 271 271 271 271 273 275 276 277 277 277 277 278 277
250 249 245 241 240 238 234 232 233 234 235 235 235 236 238 239 239 238 238 241 243 246 249 253 256 258 261 263 264 266 268 270 271 272 274 275 276 277 278 279 279 279
243 241 239 236 235 234 233 232 232 233 233 235 236 238 240 241 241 242 243 244 247 250 252 254 256 257 259 261 263 265 267 270 272 274 275 275 276 277 277 278 279 280
239 236 233 231 229 229 230 231 233 235 236 238 240 242 244 245 247 248 249 250 251 252 253 255 257 259 261 263 265 267 269 271 273 275 275 276 276 277 277 277 278 278
239 236 234 234 234 234 234 233 234 236 238 240 242 244 246 247 249 250 252 252 252 253 254 257 259 261 264 266 268 270 271 273 274 275 276 276 276 276 276 276 276 276
238 240 239 240 240 238 236 236 235 235 237 238 240 243 245 247 249 251 252 254 256 257 260 262 264 266 268 270 272 273 275 276 277 277 277 276 276 276 275 275 275 276
237 240 241 242 241 238 235 235 234 234 235 237 240 243 245 247 250 251 254 256 259 261 263 264 266 268 270 272 273 275 276 277 278 278 277 277 276 275 274 274 274 275
244 244 244 243 241 239 237 236 234 233 234 235 238 241 244 247 250 253 255 257 258 259 260 261 263 266 268 270 272 274 276 277 278 279 279 278 277 276 275 274 274 275
Height
3135 3135 3134 3134 3135 3136 3137 3137 3138 3138 3137 3137 3136 3135 3134 3133 3133 3132 3132 3132 3132 3133 3134 3135 3136 3136 3136 3136 3136 3136 3136 3136 3136 3135 3135 3134 3134 3134 3134 3135 3135 3135
3133 3134 3133 3133 3133 3134 3135 3136 3137 3137 3137 3137 3136 3136 3135 3134 3134 3133 3133 3133 3133 3134 3135 3136 3137 3137 3137 3137 3137 3137 3137 3137 3137 3136 3136 3135 3135 3135 3135 3135 3135 3136
3130 3132 3132 3132 3132 3132 3133 3135 3136 3136 3137 3137 3136 3136 3135 3135 3135 3134 3134 3134 3134 3135 3136 3137 3137 3138 3138 3138 3138 3138 3138 3137 3137 3137 3137 3136 3136 3135 3135 3135 3136 3136
3128 3129 3130 3130 3129 3130 3132 3133 3134 3136 3136 3136 3136 3136 3136 3136 3135 3135 3135 3135 3135 3136 3136 3137 3137 3138 3138 3138 3138 3138 3138 3138 3138 3138 3137 3137 3136 3136 3136 3136 3136 3136
3125 3126 3127 3128 3127 3128 3130 3131 3133 3135 3136 3136 3136 3136 3136 3136 3136 3136 3136 3136 3136 3136 3137 3137 3138 3138 3138 3138 3138 3138 3138 3138 3138 3138 3138 3138 3137 3137 3136 3136 3136 3136
3123 3123 3124 3125 3126 3127 3129 3130 3131 3134 3135 3135 3135 3135 3136 3136 3136 3136 3136 3136 3136 3137 3137 3137 3138 3138 3138 3138 3138 3138 3138 3138 3138 3138 3138 3138 3138 3137 3137 3137 3137 3137
3120 3120 3121 3122 3124 3125 3127 3128 3129 3131 3133 3133 3133 3134 3134 3134 3134 3135 3135 3135 3135 3136 3136 3137 3137 3137 3138 3138 3138 3138 3138 3138 3138 3138 3138 3138 3138 3138 3138 3137 3137 3137
3119 3119 3119 3120 3121 3123 3125 3126 3127 3129 3131 3132 3132 3132 3132 3132 3133 3134 3134 3135 3135 3135 3135 3135 3135 3136 3136 3136 3136 3136 3136 3136 3136 3136 3137 3137 3137 3137 3137 3137 3137 3137
3118 3117 3117 3118 3119 3121 3123 3124 3125 3126 3128 3129 3130 3130 3130 3131 3132 3133 3134 3134 3134 3135 3134 3134 3134 3134 3134 3134 3135 3135 3135 3134 3134 3135 3135 3135 3135 3135 3136 3136 3136 3136
3116 3115 3115 3116 3117 3118 3120 3122 3123 3124 3125 3126 3127 3128 3128 3129 3130 3131 3132 3132 3133 3133 3133 3133 3133 3132 3132 3132 3132 3133 3133 3133 3133 3133 3133 3133 3133 3134 3134 3134 3134 3135
3113 3113 3113 3114 3115 3117 3118 3120 3121 3122 3123 3124 3124 3124 3126 3127 3128 3128 3129 3130 3130 3130 3131 3131 3132 3131 3130 3130 3129 3130 3131 3132 3132 3132 3132 3131 3132 3132 3132 3132 3132 3132
3110 3111 3111 3113 3114 3115 3117 3118 3119 3120 3121 3121 3121 3121 3124 3125 3126 3126 3126 3126 3127 3128 3129 3129 3130 3130 3129 3129 3128 3128 3128 3129 3130 3130 3130 3130 3130 3130 3130 3130 3130 3130
3108 3109 3110 3111 3112 3113 3115 3116 3117 3117 3118 3119 3119 3120 3122 3123 3123 3124 3124 3124 3125 3126 3127 3127 3127 3127 3127 3127 3127 3126 3126 3127 3127 3128 3128 3128 3128 3128 3128 3128 3129 3129
3107 3108 3109 3109 3110 3111 3112 3113 3114 3115 3116 3117 3117 3118 3119 3119 3120 3120 3121 3123 3124 3124 3124 3124 3124 3125 3125 3125 3126 3125 3125 3125 3125 3126 3126 3126 3126 3126 3126 3127 3127 3127
3106 3107 3107 3108 3108 3108 3109 3110 3111 3112 3113 3115 3115 3116 3116 3116 3116 3117 3119 3121 3122 3121 3121 3121 3122 3123 3123 3123 3123 3123 3123 3123 3123 3124 3124 3124 3124 3124 3124 3124 3125 3125
3104 3105 3105 3106 3106 3106 3107 3107 3108 3109 3110 3112 3112 3112 3113 3113 3114 3115 3116 3117 3118 3118 3118 3119 3120 3121 3120 3120 3120 3121 3121 3121 3121 3122 3121 3121 3121 3122 3122 3122 3122 3122
3102 3102 3103 3104 3104 3104 3104 3105 3105 3106 3107 3108 3109 3109 3110 3111 3112 3112 3113 3113 3114 3115 3115 3116 3117 3117 3117 3117 3117 3118 3118 3119 3119 3119 3119 3119 3119 3119 3119 3119 3120 3120
3100 3100 3101 3101 3102 3102 3102 3102 3103 3103 3104 3105 3106 3107 3108 3109 3109 3109 3110 3110 3111 3112 3113 3113 3114 3114 3114 3114 3114 3114 3115 3116 3116 3116 3116 3116 3116 3116 3117 3117 3117 3117
3099 3099 3099 3099 3099 3100 3100 3101 3101 3102 3102 3103 3104 3104 3105 3106 3107 3107 3107 3108 3108 3109 3110 3111 3111 3111 3111 3111 3111 3112 3112 3112 3113 3113 3113 3113 3113 3113 3114 3114 3114 3114
3096 3097 3097 3097 3097 3098 3098 3099 3099 3100 3100 3101 3101 3102 3103 3103 3104 3105 3105 3106 3106 3107 3108 3108 3108 3109 3109 3109 3109 3109 3109 3109 3110 3110 3110 3110 3110 3110 3110 3110 3110 3110
3094 3094 3095 3095 3095 3096 3096 3097 3097 3098 3098 3098 3099 3099 3100 3101 3102 3103 3103 3104 3104 3105 3105 3106 3106 3106 3106 3106 3106 3106 3106 3106 3106 3107 3107 3107 3107 3107 3107 3107 3107 3107
3090 3091 3091 3092 3093 3093 3094 3094 3095 3095 3095 3096 3096 3097 3097 3098 3099 3100 3100 3101 3102 3102 3102 3103 3103 3103 3103 3103 3103 3103 3103 3103 3103 3104 3104 3104 3104 3104 3104 3104 3104 3103
3086 3087 3087 3088 3089 3090 3091 3092 3092 3092 3093 3093 3093 3094 3095 3096 3096 3097 3097 3098 3098 3099 3099 3100 3100 3100 3101 3101 3101 3101 3101 3100 3101 3101 3101 3101 3101 3101 3101 3100 3100 3100
3083 3084 3084 3085 3086 3087 3088 3089 3089 3089 3090 3090 3091 3091 3092 3093 3094 3094 3095 3095 3096 3097 3097 3098 3098 3098 3098 3098 3098 3098 3098 3098 3098 3098 3098 3098 3098 3098 3098 3097 3097 3097
3080 3081 3082 3082 3083 3084 3085 3085 3086 3086 3087 3088 3088 3089 3090 3091 3091 3092 3092 3093 3094 3094 3095 3095 3096 3096 3096 3096 3096 3096 3095 3095 3095 3095 3095 3095 3095 3095 3095 3094 3094 3094
3078 3078 3079 3080 3080 3081 3082 3082 3083 3083 3084 3084 3085 3086 3087 3088 3088 3089 3090 3091 3091 3092 3092 3093 3093 3093 3093 3093 3093 3093 3092 3092 3092 3092 3091 3091 3091 3091 3091 3091 3091 3090